| time (UTC) | temp F | wind direction | speed knots | gust knots | rain 1hr in | rain 24hr in | rain mn in | humidity % | barometer mb |
| 20260902173451 | 80 | 202 | 0.0 | 0.0 | 0.00 | 0.00 | 0.00 | 88 | 1010.7 |
| 20260902172447 | 80 | 202 | 0.0 | 0.0 | 0.00 | 0.00 | 0.00 | 88 | 1011.0 |
| 20260902171447 | 80 | 202 | 0.0 | 0.0 | 0.00 | 0.00 | 0.00 | 88 | 1011.2 |
| 20260902170447 | 80 | 202 | 0.0 | 0.0 | 0.00 | 0.00 | 0.00 | 88 | 1011.2 |
| 20260902165450 | 80 | 202 | 0.0 | 0.0 | 0.00 | 0.00 | 0.00 | 88 | 1011.3 |
| 20260902164447 | 80 | 202 | 0.0 | 0.0 | 0.00 | 0.00 | 0.00 | 88 | 1011.5 |
| 20260902163447 | 80 | 202 | 0.0 | 0.0 | 0.00 | 0.00 | 0.00 | 88 | 1011.5 |
| 20260902162447 | 80 | 202 | 0.0 | 0.0 | 0.00 | 0.00 | 0.00 | 88 | 1011.6 |
| 20260902161447 | 80 | 202 | 0.0 | 0.0 | 0.00 | 0.00 | 0.00 | 88 | 1011.6 |
| 20260902160447 | 80 | 202 | 0.0 | 0.0 | 0.00 | 0.00 | 0.00 | 88 | 1011.6 |
| 20260902155447 | 80 | 202 | 0.0 | 0.0 | 0.00 | 0.00 | 0.00 | 88 | 1011.5 |
| 20260902154447 | 80 | 202 | 0.0 | 0.0 | 0.00 | 0.00 | 0.00 | 88 | 1011.5 |
| 20260902153447 | 80 | 202 | 0.0 | 0.0 | 0.00 | 0.00 | 0.00 | 88 | 1011.5 |
| 20260902152447 | 80 | 202 | 0.0 | 0.0 | 0.00 | 0.00 | 0.00 | 88 | 1011.3 |
| 20260902151450 | 80 | 202 | 0.0 | 0.0 | 0.00 | 0.00 | 0.00 | 88 | 1011.4 |
| 20260902150447 | 80 | 202 | 0.0 | 0.0 | 0.00 | 0.00 | 0.00 | 88 | 1011.4 |
| 20260902145447 | 80 | 202 | 0.0 | 0.0 | 0.00 | 0.00 | 0.00 | 88 | 1011.4 |
| 20260902144447 | 80 | 202 | 0.0 | 0.0 | 0.00 | 0.00 | 0.00 | 88 | 1011.3 |
| 20260902143447 | 80 | 202 | 0.0 | 0.0 | 0.00 | 0.00 | 0.00 | 88 | 1011.3 |
| 20260902142447 | 80 | 202 | 0.0 | 0.0 | 0.00 | 0.00 | 0.00 | 88 | 1011.3 |
| 20260902141447 | 80 | 202 | 0.0 | 0.0 | 0.00 | 0.00 | 0.00 | 88 | 1011.3 |
| 20260902140447 | 80 | 202 | 0.0 | 0.0 | 0.00 | 0.00 | 0.00 | 88 | 1011.3 |
| 20260902135447 | 80 | 202 | 0.0 | 0.0 | 0.00 | 0.00 | 0.00 | 88 | 1011.3 |
| 20260902134447 | 80 | 202 | 0.0 | 0.0 | 0.00 | 0.00 | 0.00 | 88 | 1011.3 |
| 20260902133450 | 80 | 202 | 0.0 | 0.0 | 0.00 | 0.00 | 0.00 | 88 | 1011.3 |
| 20260902132447 | 80 | 202 | 0.0 | 0.0 | 0.00 | 0.00 | 0.00 | 88 | 1011.2 |
| 20260902131447 | 80 | 202 | 0.0 | 0.0 | 0.00 | 0.00 | 0.00 | 88 | 1010.8 |
| 20260902130446 | 80 | 202 | 0.0 | 0.0 | 0.00 | 0.00 | 0.00 | 88 | 1010.8 |
| 20260902125450 | 80 | 202 | 0.0 | 0.0 | 0.00 | 0.00 | 0.00 | 88 | 1010.7 |
| 20260902124446 | 80 | 202 | 0.0 | 0.0 | 0.00 | 0.00 | 0.00 | 88 | 1010.2 |
| 20260902123450 | 80 | 202 | 0.0 | 0.0 | 0.00 | 0.00 | 0.00 | 88 | 1010.2 |
| 20260902122447 | 80 | 202 | 0.0 | 1.7 | 0.00 | 0.00 | 0.00 | 87 | 1009.7 |
| 20260902121447 | 80 | 200 | 0.0 | 1.7 | 0.00 | 0.00 | 0.00 | 86 | 1009.8 |
| 20260902120447 | 80 | 200 | 0.0 | 1.7 | 0.00 | 0.00 | 0.00 | 86 | 1009.8 |
| 20260902115446 | 80 | 200 | 0.0 | 2.6 | 0.00 | 0.00 | 0.00 | 86 | 1009.9 |
| 20260902114446 | 80 | 200 | 0.0 | 1.7 | 0.00 | 0.00 | 0.00 | 86 | 1009.9 |
| 20260902113447 | 81 | 200 | 0.0 | 1.7 | 0.00 | 0.00 | 0.00 | 86 | 1009.9 |
| 20260902112450 | 81 | 200 | 0.0 | 0.0 | 0.00 | 0.00 | 0.00 | 85 | 1009.8 |
| 20260902111447 | 81 | 200 | 0.0 | 0.9 | 0.00 | 0.00 | 0.00 | 85 | 1009.8 |
| 20260902110449 | 81 | 200 | 0.0 | 0.9 | 0.00 | 0.00 | 0.00 | 85 | 1009.8 |
| 20260902105447 | 81 | 200 | 0.0 | 0.9 | 0.00 | 0.00 | 0.00 | 85 | 1009.8 |
| 20260902104447 | 81 | 200 | 0.0 | 1.7 | 0.00 | 0.00 | 0.00 | 84 | 1009.8 |
| 20260902103446 | 81 | 200 | 0.0 | 2.6 | 0.00 | 0.00 | 0.00 | 84 | 1009.8 |
| 20260902102446 | 81 | 200 | 0.0 | 1.7 | 0.00 | 0.00 | 0.00 | 84 | 1009.7 |
| 20260902101446 | 81 | 200 | 0.0 | 0.0 | 0.00 | 0.00 | 0.00 | 83 | 1009.6 |
| 20260902100446 | 81 | 200 | 0.0 | 1.7 | 0.00 | 0.00 | 0.00 | 83 | 1009.6 |
| 20260902095446 | 81 | 200 | 0.9 | 2.6 | 0.00 | 0.00 | 0.00 | 83 | 1009.7 |
| 20260902094447 | 81 | 200 | 0.0 | 1.7 | 0.00 | 0.00 | 0.00 | 82 | 1009.7 |
| 20260902093446 | 81 | 200 | 0.0 | 0.9 | 0.00 | 0.00 | 0.00 | 82 | 1009.7 |
| 20260902092446 | 81 | 200 | 0.0 | 1.7 | 0.00 | 0.00 | 0.00 | 82 | 1009.7 |
| 20260902091447 | 81 | 201 | 0.0 | 2.6 | 0.00 | 0.00 | 0.00 | 82 | 1009.7 |
| 20260902090446 | 81 | 201 | 0.0 | 2.6 | 0.00 | 0.00 | 0.00 | 82 | 1009.7 |
| 20260902085449 | 81 | 201 | 0.0 | 1.7 | 0.00 | 0.00 | 0.00 | 81 | 1009.7 |
| 20260902084446 | 81 | 201 | 0.0 | 2.6 | 0.00 | 0.00 | 0.00 | 81 | 1009.7 |
| 20260902083446 | 81 | 200 | 0.0 | 2.6 | 0.00 | 0.00 | 0.00 | 81 | 1009.7 |
| 20260902082446 | 81 | 198 | 0.0 | 1.7 | 0.00 | 0.00 | 0.00 | 80 | 1009.7 |
| 20260902081447 | 82 | 198 | 0.0 | 3.5 | 0.00 | 0.00 | 0.00 | 79 | 1009.7 |
| 20260902080446 | 82 | 202 | 0.0 | 2.6 | 0.00 | 0.00 | 0.00 | 79 | 1009.7 |
| 20260902075447 | 82 | 267 | 0.9 | 2.6 | 0.00 | 0.00 | 0.00 | 79 | 1009.7 |
| 20260902074446 | 82 | 267 | 0.0 | 2.6 | 0.00 | 0.00 | 0.00 | 79 | 1009.7 |
| 20260902073447 | 82 | 268 | 0.0 | 2.6 | 0.00 | 0.00 | 0.00 | 79 | 1009.7 |
| 20260902072446 | 81 | 273 | 0.9 | 1.7 | 0.00 | 0.00 | 0.00 | 79 | 1009.8 |
| 20260902071449 | 81 | 273 | 0.0 | 1.7 | 0.00 | 0.00 | 0.00 | 79 | 1009.8 |
| 20260902070447 | 81 | 294 | 0.0 | 4.3 | 0.00 | 0.00 | 0.00 | 79 | 1009.8 |
| 20260902065447 | 81 | 51 | 0.0 | 1.7 | 0.00 | 0.00 | 0.00 | 79 | 1009.7 |
| 20260902064446 | 82 | 49 | 0.9 | 0.9 | 0.00 | 0.00 | 0.00 | 78 | 1009.7 |
| 20260902063447 | 82 | 48 | 0.0 | 1.7 | 0.00 | 0.00 | 0.00 | 76 | 1009.7 |
| 20260902062450 | 82 | 46 | 0.0 | 1.7 | 0.00 | 0.00 | 0.00 | 75 | 1009.7 |
| 20260902061449 | 82 | 46 | 0.0 | 0.0 | 0.00 | 0.00 | 0.00 | 74 | 1009.7 |
| 20260902060446 | 82 | 46 | 0.0 | 0.0 | 0.00 | 0.00 | 0.00 | 73 | 1009.7 |
| 20260902055446 | 82 | 46 | 0.0 | 0.0 | 0.00 | 0.00 | 0.00 | 72 | 1010.0 |
| 20260902054447 | 82 | 46 | 0.0 | 0.0 | 0.00 | 0.00 | 0.00 | 72 | 1009.9 |
| 20260902053450 | 82 | 46 | 0.0 | 0.0 | 0.00 | 0.00 | 0.00 | 71 | 1009.9 |
| 20260902052446 | 82 | 46 | 0.0 | 0.0 | 0.00 | 0.00 | 0.00 | 72 | 1009.9 |
| 20260902051447 | 82 | 46 | 0.0 | 0.0 | 0.00 | 0.00 | 0.00 | 71 | 1010.0 |
| 20260902050446 | 82 | 46 | 0.0 | 0.0 | 0.00 | 0.00 | 0.00 | 70 | 1010.0 |
| 20260902045446 | 82 | 46 | 0.0 | 0.0 | 0.00 | 0.00 | 0.00 | 70 | 1009.9 |
| 20260902044446 | 82 | 46 | 0.0 | 0.0 | 0.00 | 0.00 | 0.00 | 70 | 1009.7 |
| 20260902043446 | 82 | 46 | 0.0 | 0.0 | 0.00 | 0.00 | 0.00 | 69 | 1009.7 |
| 20260902042446 | 82 | 46 | 0.0 | 0.0 | 0.00 | 0.00 | 0.00 | 69 | 1010.0 |
| 20260902041446 | 82 | 46 | 0.0 | 0.0 | 0.00 | 0.00 | 0.00 | 69 | 1010.2 |
| 20260902040446 | 82 | 46 | 0.0 | 0.0 | 0.00 | 0.00 | 0.00 | 69 | 1010.2 |
| 20260902035446 | 83 | 46 | 0.0 | 0.0 | 0.00 | 0.00 | 0.00 | 69 | 1010.2 |
| 20260902034446 | 83 | 46 | 0.0 | 0.0 | 0.00 | 0.00 | 0.00 | 68 | 1010.2 |
| 20260902033447 | 83 | 46 | 0.0 | 0.0 | 0.00 | 0.00 | 0.00 | 68 | 1010.2 |
| 20260902032446 | 83 | 46 | 0.0 | 0.0 | 0.00 | 0.00 | 0.00 | 68 | 1010.1 |
| 20260902031446 | 83 | 46 | 0.0 | 0.0 | 0.00 | 0.00 | 0.00 | 68 | 1009.7 |
| 20260902030447 | 84 | 46 | 0.0 | 0.0 | 0.00 | 0.00 | 0.00 | 68 | 1009.7 |
| 20260902025450 | 84 | 46 | 0.0 | 0.0 | 0.00 | 0.00 | 0.00 | 68 | 1009.6 |
| 20260902024446 | 84 | 46 | 0.0 | 0.0 | 0.00 | 0.00 | 0.00 | 66 | 1009.5 |
| 20260902023446 | 84 | 46 | 0.0 | 0.0 | 0.00 | 0.00 | 0.00 | 67 | 1009.5 |
| 20260902022446 | 84 | 46 | 0.0 | 0.0 | 0.00 | 0.00 | 0.00 | 67 | 1009.3 |
| 20260902021446 | 85 | 46 | 0.0 | 0.0 | 0.00 | 0.00 | 0.00 | 65 | 1009.0 |
| 20260902020449 | 85 | 46 | 0.0 | 0.0 | 0.00 | 0.00 | 0.00 | 64 | 1009.0 |
| 20260902015446 | 85 | 46 | 0.0 | 0.0 | 0.00 | 0.00 | 0.00 | 63 | 1008.8 |
| 20260902014449 | 85 | 46 | 0.0 | 0.0 | 0.00 | 0.00 | 0.00 | 62 | 1008.6 |
| 20260902013446 | 85 | 46 | 0.0 | 0.0 | 0.00 | 0.00 | 0.00 | 61 | 1008.7 |
| 20260902012449 | 85 | 46 | 0.0 | 0.0 | 0.00 | 0.00 | 0.00 | 61 | 1008.7 |
| 20260902011446 | 86 | 46 | 0.0 | 0.0 | 0.00 | 0.00 | 0.00 | 61 | 1008.7 |
| 20260902010446 | 86 | 46 | 0.0 | 0.0 | 0.00 | 0.00 | 0.00 | 61 | 1008.7 |
| 20260902005446 | 86 | 46 | 0.0 | 0.0 | 0.00 | 0.00 | 0.00 | 60 | 1008.9 |
| 20260902004446 | 87 | 46 | 0.0 | 0.0 | 0.00 | 0.00 | 0.00 | 60 | 1008.8 |
| 20260902003449 | 87 | 46 | 0.0 | 0.0 | 0.00 | 0.00 | 0.00 | 60 | 1008.8 |
| 20260902002446 | 87 | 46 | 0.0 | 0.9 | 0.00 | 0.00 | 0.00 | 60 | 1008.7 |
| 20260902001446 | 88 | 46 | 0.0 | 0.9 | 0.00 | 0.00 | 0.00 | 61 | 1008.7 |
| 20260902000446 | 88 | 46 | 0.0 | 0.0 | 0.00 | 0.00 | 0.00 | 61 | 1008.7 |
| 20260901235449 | 89 | 46 | 0.0 | 1.7 | 0.00 | 0.00 | 0.00 | 60 | 1008.7 |
| 20260901234446 | 89 | 46 | 0.0 | 1.7 | 0.00 | 0.00 | 0.00 | 58 | 1008.7 |
| 20260901233446 | 90 | 46 | 0.0 | 6.1 | 0.00 | 0.00 | 0.00 | 58 | 1008.7 |
| 20260901232445 | 90 | 20 | 0.9 | 1.7 | 0.00 | 0.00 | 0.00 | 52 | 1008.7 |
| 20260901231449 | 91 | 20 | 0.0 | 0.0 | 0.00 | 0.00 | 0.00 | 51 | 1008.7 |
| 20260901230446 | 91 | 20 | 0.0 | 1.7 | 0.00 | 0.00 | 0.00 | 51 | 1008.7 |
| 20260901225446 | 91 | 20 | 0.0 | 1.7 | 0.00 | 0.00 | 0.00 | 49 | 1008.8 |
| 20260901224446 | 91 | 20 | 0.0 | 0.0 | 0.00 | 0.00 | 0.00 | 48 | 1008.8 |
| 20260901223446 | 92 | 20 | 0.0 | 0.0 | 0.00 | 0.00 | 0.00 | 47 | 1008.8 |
| 20260901222446 | 92 | 20 | 0.0 | 0.0 | 0.00 | 0.00 | 0.00 | 47 | 1008.8 |
| 20260901221449 | 92 | 20 | 0.0 | 1.7 | 0.00 | 0.00 | 0.00 | 45 | 1009.1 |
| 20260901220446 | 92 | 20 | 0.0 | 0.0 | 0.00 | 0.00 | 0.00 | 45 | 1009.1 |
| 20260901215446 | 92 | 20 | 0.0 | 0.0 | 0.00 | 0.00 | 0.00 | 44 | 1009.3 |
| 20260901214445 | 93 | 20 | 0.0 | 1.7 | 0.00 | 0.00 | 0.00 | 44 | 1009.5 |
| 20260901213446 | 93 | 20 | 0.0 | 0.0 | 0.00 | 0.00 | 0.00 | 45 | 1009.5 |
| 20260901212446 | 94 | 20 | 0.0 | 1.7 | 0.00 | 0.00 | 0.00 | 46 | 1009.3 |
| 20260901211445 | 94 | 20 | 0.0 | 1.7 | 0.00 | 0.00 | 0.00 | 47 | 1009.2 |
| 20260901210449 | 95 | 20 | 0.0 | 2.6 | 0.00 | 0.00 | 0.00 | 45 | 1009.2 |
| 20260901205446 | 96 | 20 | 0.9 | 4.3 | 0.00 | 0.00 | 0.00 | 45 | 1009.3 |
| 20260901204449 | 97 | 20 | 0.0 | 2.6 | 0.00 | 0.00 | 0.00 | 42 | 1009.6 |
| 20260901203449 | 97 | 20 | 0.0 | 5.2 | 0.00 | 0.00 | 0.00 | 44 | 1009.6 |
| 20260901202446 | 97 | 34 | 0.0 | 3.5 | 0.00 | 0.00 | 0.00 | 45 | 1009.8 |
| 20260901201446 | 97 | 12 | 2.6 | 6.1 | 0.00 | 0.00 | 0.00 | 45 | 1010.0 |
| 20260901200445 | 95 | 22 | 1.7 | 2.6 | 0.00 | 0.00 | 0.00 | 47 | 1010.0 |
| 20260901195446 | 94 | 22 | 0.0 | 5.2 | 0.00 | 0.00 | 0.00 | 48 | 1010.2 |
| 20260901194446 | 94 | 17 | 2.6 | 3.5 | 0.00 | 0.00 | 0.00 | 48 | 1010.2 |
| 20260901193446 | 94 | 0 | 0.0 | 2.6 | 0.00 | 0.00 | 0.00 | 47 | 1010.2 |
| 20260901192445 | 94 | 300 | 0.9 | 2.6 | 0.00 | 0.00 | 0.00 | 48 | 1010.3 |
| 20260901191446 | 93 | 300 | 0.0 | 3.5 | 0.00 | 0.00 | 0.00 | 50 | 1010.3 |
| 20260901190445 | 93 | 9 | 2.6 | 5.2 | 0.00 | 0.00 | 0.00 | 51 | 1010.3 |
| 20260901185448 | 93 | 20 | 0.9 | 3.5 | 0.00 | 0.00 | 0.00 | 51 | 1010.7 |
| 20260901184445 | 93 | 325 | 0.9 | 3.5 | 0.00 | 0.00 | 0.00 | 52 | 1010.8 |
| 20260901183445 | 92 | 300 | 1.7 | 4.3 | 0.00 | 0.00 | 0.00 | 53 | 1010.8 |
| 20260901182449 | 92 | 17 | 0.0 | 2.6 | 0.00 | 0.00 | 0.00 | 55 | 1010.8 |
| 20260901181445 | 91 | 17 | 0.0 | 3.5 | 0.00 | 0.00 | 0.00 | 57 | 1011.0 |
| 20260901180446 | 90 | 17 | 0.0 | 4.3 | 0.00 | 0.00 | 0.00 | 59 | 1011.0 |
| 20260901175449 | 89 | 18 | 0.9 | 2.6 | 0.00 | 0.00 | 0.00 | 62 | 1011.3 |
| 20260901174445 | 89 | 18 | 0.9 | 3.5 | 0.00 | 0.00 | 0.00 | 63 | 1011.8 |